Regional Weather Roundup
Issued by NWS Wakefield, VA

Home | Current Version | Previous Version | Text Only | Print | Product List | Glossary On
Versions: 1 2 3 4 5 6 7 8 9 10 11 12 13 14 15 16 17 18 19 20 21 22 23 24 25 26 27 28 29 30 31 32 33 34 35 36 37 38 39 40 41 42 43 44 45 46 47 48
000
ASUS41 KAKQ 301414
RWRAKQ
REGIONAL WEATHER ROUNDUP
NATIONAL WEATHER SERVICE WAKEFIELD VA
1000 AM EDT MON MAR 30 2015

Note: "fair" indicates few or no clouds below 12,000 feet with no
significant weather and/or obstructions to visibility. * = Denotes
station may not report precipitation (e.g., rain,snow,etc.),
thunder or fog.

VAZ042-051-052>054-056-301500-
NORTHERN VIRGINIA

CITY           SKY/WX    TMP DP  RH WIND       PRES   REMARKS
WASH NATIONAL  CLOUDY    50  23  34 SW10G21   29.92F
DULLES         CLOUDY    46  23  40 S12       29.91S
FORT BELVOIR   CLOUDY    49  22  34 VRB5      29.92F
QUANTICO       CLOUDY    50  21  32 SW13G21   29.94F
FREDERICKSBRG* CLOUDY    52  26  36 SW15G21   29.93F
STAFFORD*      CLOUDY    49  20  31 SW7G17    29.97S
WARRENTON      CLOUDY    50  32  49 S12       29.91S
CULPEPER*      CLOUDY    52  25  35 SW10      29.92F
MANASSAS*      NOT AVBL
LEESBURG*      CLOUDY    45  27  49 SW5       29.91S
WINCHESTER     CLOUDY    48  19  32 SW6       29.90R
FRONT ROYAL*   CLOUDY    46  30  53 SW7       29.88S
LURAY*         CLOUDY    50  36  57 SW9       29.90R
$$

VAZ048-049-060>072-079>083-301500-
CENTRAL AND SOUTH CENTRAL VIRGINIA

CITY           SKY/WX    TMP DP  RH WIND       PRES   REMARKS
RICHMOND       CLOUDY    47  30  51 SW13      29.99F
CHESTERFIELD*  NOT AVBL
PETERSBURG*    LGT RAIN  44  32  62 S8        30.03S
HANOVER        CLOUDY    48  25  40 SW14      30.00S
TAPPAHANNOCK*  CLOUDY    43  29  57 S14       29.99S
QUINTON*       CLOUDY    45  30  57 SW5       30.00S
CHARLOTTSVILLE CLOUDY    49  26  41 S12       29.93S
GORDONSVILLE*  FAIR      48  26  42 SW12G18   29.93S
ORANGE*        CLOUDY    50  27  40 S13G20    29.94F
LOUISA*        CLOUDY    50  25  37 SW6G16    29.94S
BUMPASS*       FAIR      49  24  37 SW10G16   29.96S
FARMVILLE*     CLOUDY    50  24  36 SW12      29.98R
CREWE*         FAIR      47  25  42 MISG      30.00S
FORT PICKETT*  CLOUDY    44  31  61 SW12      30.02S
CHASE CITY*    CLOUDY    46  34  62 SW6       30.03R
CLARKSVILLE*   CLOUDY    41  34  75 SW10      30.03F
SOUTH HILL*    CLOUDY    41  34  76 SW12G20   30.10S
LAWRENCEVILLE* CLOUDY    42  35  77 SW10      30.04S
EMPORIA*       LGT RAIN  41  36  81 S3        30.07S
$$

VAZ088>098-301500-
SOUTHEAST VIRGINIA

CITY           SKY/WX    TMP DP  RH WIND       PRES   REMARKS
NORFOLK        CLOUDY    48  28  46 SW15      30.03S
VIRGINIA BEACH CLOUDY    50  30  46 SW16G23   30.03F
NORFOLK NAVAL  NOT AVBL
WEST POINT*    CLOUDY    45  33  63 S5        30.03S
SALUDA*        CLOUDY    40  34  77 SW9G21    29.99F
NEWPORT NEWS   RAIN      47  33  58 SW10      30.04S
LANGLEY AFB    LGT RAIN  45  33  64 SW16      30.03S
FORT EUSTIS    LGT RAIN  44  33  66 VRB5      30.02R
WILLIAMSBURG*  CLOUDY    46  36  66 SW6       30.04S
HR EXEC AP*    CLOUDY    48  30  49 SW10G16   30.06S
FRANKLIN*      LGT RAIN  45  33  62 SW9       30.07R
WAKEFIELD      LGT RAIN  43  34  70 SW7       30.05
$$

VAZ020-022-025-037-045-301500-
WEST CENTRAL AND SOUTHWEST VIRGINIA

CITY           SKY/WX    TMP DP  RH WIND       PRES   REMARKS
STAUNTON*      CLOUDY    50  37  62 SW12      29.93S
WAYNESBORO*    PTSUNNY   48  37  66 SW9G20    29.92S
HOT SPRINGS VA SNOW      37  37 100 W20G31    29.88R VSB<1/4
LYNCHBURG      CLOUDY    47  26  44 S13       29.99S
DANVILLE       CLOUDY    47  28  47 SW10      30.04S
SOUTH BOSTON*  PTSUNNY   45  28  50 SW12G24   30.04R
MARTINSVILLE   CLOUDY    47  24  40 SW8       30.05S
ROANOKE        CLOUDY    49  37  63 SW10      30.00S
BLACKSBURG     CLOUDY    42  37  79 W5        30.02R
DUBLIN*        RAIN      43  41  91 SW10      30.01S
MARION*        DRIZZLE   41  39  93 W15G23    30.03S
HILLSVILLE*    CLOUDY    42  39  89 W7        30.01S
RICHLANDS*     CLOUDY    41  27  57 W8        30.03S HAZE
WISE*          CLOUDY    45  43  93 NW12G23   30.07R
ABINGDON*      CLOUDY    43  42  97 W8        30.06S FOG
$$

MDZ021>025-VAZ099-100-301500-
SOUTHERN MARYLAND AND THE DELMARVA PENINSULA

CITY           SKY/WX    TMP DP  RH WIND       PRES   REMARKS
PATUXENT RIVER CLOUDY    44  26  49 SW17G30   29.94F
BAY BRIDGE APT   N/A     45  27  49 SW10      29.93F
LEONARDTOWN    CLOUDY    43  27  52 SW16      29.96S
DOVER          CLOUDY    42  35  76 SW16G24   29.92F
GEORGETOWN     CLOUDY    41  33  73 SW15      29.95F
EASTON         CLOUDY    46  32  57 SW16      29.97
CAMBRIDGE      CLOUDY    45  28  53 S8G18     29.95S
SALISBURY      CLOUDY    39  34  82 SW14      29.97F
OCEAN CITY     LGT RAIN  39  33  79 SW13      29.98F
WALLOPS ISLAND RAIN      40  34  79 SW12G20   30.00F
ACCOMACK*      DRIZZLE   41  32  70 SW12G17   30.01F
$$

NCZ012>017-030>032-301500-
NORTH CENTRAL AND EASTERN NORTH CAROLINA

CITY           SKY/WX    TMP DP  RH WIND       PRES   REMARKS
ROANOKE RAPIDS LGT RAIN  45  32  61 SW14G20   30.07S
RALEIGH        LGT RAIN  42  38  85 SW14      30.09F FOG
ELIZABETH CITY CLOUDY    49  33  54 SW21G31   30.08F
AHOSKIE*       CLOUDY    46  32  57 SW7       30.07F
EDENTON*       CLOUDY    48  34  59 SW15      30.10S
CURRITUCK*     CLOUDY    49  29  47 SW17G32   30.07F
KILL DEVIL HLS CLOUDY    47  36  66 SW9       30.09F
MANTEO         CLOUDY    47  36  65 SW14      30.11S
CAPE HATTERAS  CLOUDY    55  35  47 SW23G30   30.14F
TARBORO*       CLOUDY    48  33  55 SW13G18   30.11S
GOLDSBORO      CLOUDY    49  41  75 SW12      30.10F
WASHINGTON     CLOUDY    48  33  57 SW15G23   30.12F
GREENVILLE     CLOUDY    48  34  57 SW10G17   30.12F
NEW BERN       PTSUNNY   51  36  56 SW8       30.15F
WILMINGTON     MOSUNNY   57  42  57 SW10      30.16S
$$

VAZ048-301500-
ELSEWHERE

CITY           SKY/WX    TMP DP  RH WIND       PRES   REMARKS
HARRISBURG PA  PTSUNNY   43  22  43 N3        29.87S
BALTIMORE      CLOUDY    46  23  40 SW10G17   29.89F
ANNAPOLIS      CLOUDY    47  24  40 S8G17     29.92F
ANDREWS AFB    CLOUDY    48  23  37 SW10      29.90F
PHILADELPHIA   CLOUDY    41  33  73 SW15      29.91F
HENDERSON NC   LGT RAIN  40  34  79 SW16      30.05F
GREENSBORO     CLOUDY    41  37  86 SW12      30.04F
ROCKY MOUNT    CLOUDY    48  33  56 SW13G23   30.11R
$$

VAZ100-301500-
MARINE

STATION/POSITION TIME  TEMP    WIND        PRES    WAVE   SWELL
                       AIR SEA DIR/SP/G            HT/PER HT/PER
                 (UTC) (F)     (DEG/KT/KT) (MB)    (FT/S) (FT/S)
BRANDYWINE LGT   1300   39 39  220/ 20/ 23 1013.9F
CAPE MAY NJ      1300   39 42  220/ 11/ 14 1014.1F
LEWES DE         1300   39 40  230/  9/ 15 1014.3F
15NM E FENWICK I 1350   39 40              1014.4F   7/ 6
OCEAN-CITY-INLET 1300   40 40  230/ 12/ 16 1015.3S
WACHAPREAGUE VA  1300   42 42  230/  6/ 10 1016.7F
THOMAS POINT MD  1400                        N/A
COVE POINT MD    1300   43     220/ 19/ 22 1013.8F
SOLOMONS ISLAND  1300      43                N/A
BISHOPS HEAD MD  1300          190/ 17/ 20 1014.3F
PINEY POINT MD   1312          230/ 19/ 21   N/A
CAMBRIDGE MD     1300   43 42  190/  5/ 15 1013.8F
LEWISETTA VA     1300   41 42              1014.8F
RAPPAHANNOCK LGT 1300          210/ 18/ 20 1017.0F
STINGRAY PT      1400   42 43  230/ 12/ 14   N/A     1/ 3
YORK RVR RNG VA  1300   44     240/ 15/ 18 1016.1S
YORKTOWN VA      1300   44 45  220/ 13/ 16 1016.2S
DOMINION TERM VA 1300   45     230/ 17/ 21 1016.9F
KIPTOPEKE VA     1300      47  230/ 10/ 13   N/A
CHES BAY BRIDGE  1300   45 41  200/ 18/ 21 1016.4F
CAPE HENRY VA    1300   45     210/ 13/ 20 1015.5F
CHESAPEAKE LGHT  1300   44     220/ 30/ 33 1016.7F
WILLOUBY STN VA  1300   45     230/ 19/ 22 1017.4R
S CRANEY ISL VA  1300          220/ 11/ 18 1017.1F
CAPE HENRY BUOY  1328      40                N/A     4/ 4   2/11
1ST LANDING BUOY 1400   45     230/ 17/ 23 1016.4F   2/ 3
OFFSHORE WE BUOY 1311      41                N/A     4/10   3/10
64NM E OF VA BCH 1350   49 49  220/ 25/ 33 1017.5F   6/ 6   3/10
DUCK PIER NC     1300   47 42  220/ 18/ 22 1018.4F
44056 DUCK FRF   1311      42                N/A     3/10   2/11
OREGON INLET NC  1300   49 44  210/ 17/ 19 1019.9F
HATTERAS NC      1300   55 51  230/ 13/ 21 1021.2F
CAPE LOOKOUT NC  1400   57     230/ 12/ 16 1020.8F
$$


USA.gov is the U.S. government's official web portal to all federal, state and local government web resources and services.